Regional Weather Roundup
Issued by NWS Upton, NY

Current Version | Previous Version | Text Only | Print | Product List | Glossary Off
Versions: 1 2 3 4 5 6 7 8 9 10 11 12 13 14 15 16 17 18 19 20 21 22 23 24 25 26 27 28 29 30 31 32 33 34 35 36 37 38 39 40 41 42 43 44 45 46 47 48 49 50
000 ASUS41 KOKX 270808 RWROKX REGIONAL WEATHER ROUNDUP NATIONAL WEATHER SERVICE NEW YORK NY 400 AM EDT TUE SEP 27 2016 NOTE: "FAIR" INDICATES FEW OR NO CLOUDS BELOW 12,000 FEET WITH NO SIGNIFICANT WEATHER AND/OR OBSTRUCTIONS TO VISIBILITY. NYZ071-072-176-178-NJZ106-104-270900- NEW YORK CITY METRO AREA CITY SKY/WX TMP DP RH WIND PRES REMARKS Central Park LGT RAIN 66 64 93 VRB7 29.93S FOG LaGuardia APRT LGT RAIN 68 65 90 SW10 29.90F Kennedy INTL CLOUDY 68 65 90 SW18 29.91F Newark/Liberty LGT RAIN 66 64 93 SW9 29.90F Bronx Bot Gard N/A 66 63 88 SW3 29.90F Wall St Helipt CLOUDY 68 66 94 W10 29.91F Teterboro RAIN 65 62 90 W3 29.90S FOG $$ NYZ177-179-078>081-270900- LONG ISLAND NEW YORK CITY SKY/WX TMP DP RH WIND PRES REMARKS Farmingdale HVY RAIN 68 67 96 S9 29.90F FOG MacArthur/ISP RAIN 68 66 93 S9 29.90F FOG Shirley LGT RAIN 68 64 87 S9 29.92S Riverhead NOT AVBL Westhampton CLOUDY 69 62 78 S10G20 29.94F Southampton N/A 70 64 83 S16 29.88F Bridgehampton N/A 68 63 83 S2 29.78F East Hampton CLOUDY 68 62 80 S6 29.92F Montauk N/A 69 62 78 S10G16 29.93F $$ NYZ052-065-067-270900- HUDSON VALLEY CITY SKY/WX TMP DP RH WIND PRES REMARKS White Plains LGT RAIN 65 63 93 W5 29.90F FOG Newburgh DRIZZLE 61 61 100 CALM 29.92F Montgomery RAIN 60 59 96 CALM 29.91S FOG Poughkeepsie LGT RAIN 61 60 97 CALM 29.90F Albany LGT RAIN 58 56 93 S7 29.90F $$ NJZ001-105-106-008-010-013-015-019>022-104-270900- NEW JERSEY CITY SKY/WX TMP DP RH WIND PRES REMARKS Newark/Liberty LGT RAIN 66 64 93 SW9 29.90F Teterboro RAIN 65 62 90 W3 29.90S FOG Caldwell LGT RAIN 63 62 97 CALM 29.92S FOG Morristown RAIN 63 63 100 CALM 29.91F Somerville LGT RAIN 62 61 96 CALM 29.90F Linden NOT AVBL Sussex LGT RAIN 60 60 100 CALM 29.92S FOG Abdover N/A 60 58 92 CALM 29.92F Trenton LGT RAIN 65 63 93 W3 29.91F Millville CLOUDY 69 68 96 SW7 29.93F Atlantic City CLOUDY 69 66 90 SW12 29.93F Wrightstown CLOUDY 66 65 96 SW9 29.89F Toms River CLOUDY 68 67 96 SW7 29.92F Belmar CLOUDY 67 66 97 S8 29.92F $$ PAZ047>061-062-071-270900- EASTERN PENNSYLVANIA CITY SKY/WX TMP DP RH WIND PRES REMARKS Philadelphia CLOUDY 69 64 84 SW13 29.92F Allentown CLOUDY 61 59 93 CALM 29.92F Scranton CLOUDY 59 58 96 SW5 29.92F FOG $$ CTZ002-004>006-009-010-012-RIZ004-006-007-MAZ004-011-015-270900- SOUTHERN NEW ENGLAND IN CT CITY SKY/WX TMP DP RH WIND PRES REMARKS Bradley INTL RAIN 60 58 92 NW3 29.92F FOG Hartford LGT RAIN 62 62 100 CALM 29.91S FOG Danbury HVY RAIN 62 61 96 CALM 29.92F FOG Wtrbury/Oxford N/A 63 59 88 SW3 29.93F Bridgeport HVY RAIN 68 65 90 SW7 29.90F FOG Meriden RAIN 66 62 87 VRB5 29.91F FOG New Haven LGT RAIN 67 63 87 SW9G18 29.91F FOG Chester LGT RAIN 66 63 88 S7G15 29.92F Groton CLOUDY 71 62 73 S13 29.91F Wilimantic LGT RAIN 61 57 87 CALM 29.93F IN RI CITY SKY/WX TMP DP RH WIND PRES REMARKS Providence CLOUDY 65 58 78 S8 29.93F Block Island CLOUDY 68 63 84 S16 29.94F Westerly CLOUDY 69 60 73 S12 29.93F IN MA CITY SKY/WX TMP DP RH WIND PRES REMARKS Boston CLOUDY 61 53 75 S6 29.94F Worcester CLOUDY 58 54 86 SW9 29.93F Westfield LGT RAIN 59 57 93 CALM 29.91F Provincetown CLOUDY 65 57 75 S9 29.97F Nantucket CLOUDY 66 59 78 S13 29.99F $$ ANZ330-335-338-340-345-350-353-355-270900- COASTAL MARINE OBSERVATIONS STATION/POSITION TIME SKY/WX TEMP WIND PRES VSBY WAVE AIR SEA DIR/SP/G HT/PER (UTC) (F) (DEG/KT/KT) (MB) (MI) (FT/S) NY HARB ENTRANCE 0750 71 71 240/ 19/ 23 1012.1 5/ 6 20S FIRE ISLAND 0750 69 69 210/ 19/ 25 1012.3 4/ 5 GREAT SOUTH BAY 0730 69 69 220/ 16/ 21 N/A 23 SSW MONTAUK P 0750 69 68 190/ 16/ 19 1013.6 4/ 5 15 E BARNEGAT LI 0730 71 N/A 4/ 4 HUDSON CANYON 0650 71 69 1014.9 3/ 4 KINGS POINT 0736 67 72 1012.4 EXECUTION ROCKS 0745 68 210/ 12/ 16 N/A CENTRAL LI SOUND 0715 70 72 180/ 14/ 17 N/A 2/ 3 EASTERN LI SOUND NOT AVBL ROBBINS REEF 0742 66 230/ 10/ 13 1012.8 $$ >>>>>>>>>>>>>>>>>>>>>>>>>>>> KEY <<<<<<<<<<<<<<<<<<<<<<<<<<< > < > SKY/WX - Sky Condition/Present Weather < > TMP - Temperature in Fahrenheit < > DP - Dew Point in Fahrenheit < > RH - Relative Humidity in Percent < > WIND - Direction (from) and Speed in MPH < > PRES - Mean Sea Level Pressure (inches of Hg) < > WCI - Wind Chill Index < > VSB - VISIBILITY IN MILES < > HX - HEAT INDEX < > TC - TEMPERATURE IN CELSIUS < > VRB - VARIABLE WIND DIRECTION < > < >>>>>>>>>>>>>>>>>>>>>>>>>>>> KEY <<<<<<<<<<<<<<<<<<<<<<<<<<<

USA.gov is the U.S. government's official web portal to all federal, state and local government web resources and services.